G4CVN Weather Reports


time (UTC)temp
C
wind
direction
speed
KPH
gust
KPH
rain 1hr
cm
rain 24hr
cm
rain mn
cm
humidity
%
barometer
mb
20260505181517 15 0.0 1.6 0.00 0.00 0.00 57 1014.8
20260505180517 15 0.0 1.6 0.00 0.00 0.00 57 1014.8
20260505175517 15 0.0 1.6 0.00 0.00 0.00 56 1014.8
20260505174517 15 0.0 0.0 0.00 0.00 0.00 56 1014.8
20260505173537 16 0.0 1.6 0.00 0.00 0.00 55 1014.8
20260505172517 16 0.0 1.6 0.00 0.00 0.00 55 1014.9
20260505171517 16 0.0 1.6 0.00 0.00 0.00 54 1014.9
20260505170537 16 0.0 1.6 0.00 0.00 0.00 54 1015.0
20260505165517 16 0.0 3.2 0.00 0.00 0.00 53 1014.9
20260505164517 16 270 1.6 3.2 0.00 0.00 0.00 52 1014.8
20260505163517 16 270 1.6 6.4 0.00 0.00 0.00 50 1014.9
20260505162517 16 0.0 1.6 0.00 0.00 0.00 51 1015.0
20260505161517 16 0.0 1.6 0.00 0.00 0.00 51 1015.0
20260505160517 16 0.0 1.6 0.00 0.00 0.00 53 1015.0
20260505152517 17 293 1.6 6.4 0.00 0.00 0.00 53 1015.1
20260505151517 17 0.0 3.2 0.00 0.00 0.00 53 1015.1
20260505150517 17 0.0 1.6 0.00 0.00 0.00 53 1015.1
20260505140518 17 23 1.6 4.8 0.00 0.00 0.00 53 1015.3
20260505124517 20 225 1.6 6.4 0.00 0.00 0.00 56 1015.5
20260505123517 20 0.0 6.4 0.00 0.00 0.00 54 1015.5
20260505122517 19 293 1.6 6.4 0.00 0.00 0.00 54 1015.7
20260505121517 18 0 1.6 6.4 0.00 0.00 0.00 56 1015.7
20260505120517 18 293 1.6 6.4 0.00 0.00 0.00 55 1015.7
20260505115537 18 0.0 3.2 0.00 0.00 0.00 56 1015.7
20260505114517 18 0.0 4.8 0.00 0.00 0.00 56 1015.7
20260505113517 18 338 1.6 3.2 0.00 0.00 0.00 59 1015.9
20260505112537 18 0.0 3.2 0.00 0.00 0.00 59 1015.8
20260505111517 18 0 1.6 6.4 0.00 0.00 0.00 61 1015.9
20260505110537 17 338 1.6 4.8 0.00 0.00 0.00 62 1016.0
20260505101517 17 0.0 3.2 0.00 0.00 0.00 65 1016.1
20260505100517 17 338 1.6 6.4 0.00 0.00 0.00 63 1016.1
20260505095517 17 0 1.6 4.8 0.00 0.00 0.00 66 1016.1
20260505094517 17 315 1.6 3.2 0.00 0.00 0.00 69 1016.2
20260505093517 16 0 3.2 9.7 0.00 0.00 0.00 68 1016.4
20260505092517 16 270 1.6 8.0 0.00 0.00 0.00 68 1016.5
20260505091537 16 0 1.6 12.9 0.00 0.00 0.00 69 1016.5
20260505090517 16 315 1.6 8.0 0.00 0.00 0.00 71 1016.5
20260505085517 15 23 1.6 8.0 0.00 0.00 0.00 66 1016.5
20260505084517 15 0 1.6 8.0 0.00 0.00 0.00 67 1016.5
20260505083515 15 0 1.6 4.8 0.00 0.00 0.00 70 1016.4
20260505082517 15 315 1.6 3.2 0.00 0.00 0.00 69 1016.5
20260505081517 15 0.0 4.8 0.00 0.00 0.00 71 1016.5
20260505080517 14 338 1.6 4.8 0.00 0.00 0.00 74 1016.6
20260505075517 13 0 1.6 6.4 0.00 0.00 0.00 77 1016.5
20260505074517 13 338 1.6 9.7 0.00 0.00 0.00 78 1016.6
20260505073517 13 45 1.6 3.2 0.00 0.00 0.00 81 1016.5
20260505072515 13 23 1.6 6.4 0.00 0.00 0.00 85 1016.4
20260505071537 12 23 1.6 8.0 0.00 0.00 0.00 86 1016.5
20260505070517 12 0 1.6 4.8 0.00 0.00 0.00 86 1016.5
20260505065517 12 23 1.6 4.8 0.00 0.00 0.00 87 1016.7
20260505064517 12 23 1.6 4.8 0.00 0.00 0.00 88 1016.8
20260505063537 12 0.0 8.0 0.00 0.00 0.00 88 1016.8
20260505062517 12 23 1.6 4.8 0.00 0.00 0.00 89 1016.9
20260505061515 12 23 1.6 4.8 0.00 0.00 0.00 89 1016.8
20260505060517 12 45 1.6 6.4 0.00 0.00 0.00 89 1016.8
20260505055517 12 0 1.6 6.4 0.00 0.00 0.00 89 1016.8
20260505054537 11 0.0 4.8 0.00 0.00 0.00 90 1016.8
20260505053517 11 0.0 1.6 0.00 0.00 0.00 90 1016.7
20260505052517 11 0.0 3.2 0.00 0.00 0.00 90 1016.7
20260505051517 11 0.0 4.8 0.00 0.00 0.00 90 1016.8
20260505050515 11 0.0 3.2 0.00 0.00 0.00 90 1016.6
20260505041517 11 0.0 1.6 0.00 0.00 0.00 90 1017.0
20260505040517 11 0.0 1.6 0.00 0.00 0.00 90 1017.1
20260505035515 11 0.0 1.6 0.00 0.00 0.00 90 1017.1
20260505034517 11 0.0 1.6 0.00 0.00 0.00 90 1017.2
20260505033517 11 0.0 3.2 0.00 0.00 0.00 90 1017.3
20260505032517 11 0.0 1.6 0.00 0.00 0.00 90 1017.2
20260505031517 11 0.0 3.2 0.00 0.00 0.00 90 1017.3
20260505030517 11 0.0 3.2 0.00 0.00 0.00 90 1017.2
20260505025517 11 0.0 1.6 0.00 0.00 0.00 90 1017.3
20260505024515 11 0.0 0.0 0.00 0.00 0.00 90 1017.3
20260505023517 11 0.0 0.0 0.00 0.00 0.00 90 1017.3
20260505022517 11 0.0 0.0 0.00 0.00 0.00 90 1017.2
20260505021517 12 0.0 0.0 0.00 0.00 0.00 90 1017.2
20260505020517 12 0.0 0.0 0.00 0.00 0.00 90 1017.3
20260505015517 12 0.0 3.2 0.00 0.00 0.00 89 1017.4
20260505014517 12 0.0 3.2 0.00 0.00 0.00 89 1017.4
20260505013515 12 0.0 0.0 0.00 0.00 0.00 90 1017.6
20260505012537 12 0.0 1.6 0.00 0.00 0.00 90 1017.7
20260505011517 12 0.0 0.0 0.00 0.00 0.00 90 1017.6
20260505010537 12 0.0 1.6 0.00 0.00 0.00 90 1017.6
20260505005517 12 0.0 0.0 0.00 0.00 0.00 90 1017.9
20260505004517 12 0.0 3.2 0.00 0.00 0.00 91 1017.9
20260505003537 12 0.0 6.4 0.00 0.00 0.00 91 1018.0
20260505002517 12 0.0 6.4 0.00 0.00 0.00 91 1018.1
20260505001515 12 0.0 1.6 0.00 0.00 0.00 91 1018.1
20260505000536 12 0.0 0.0 0.00 0.00 0.00 92 1018.1
20260504235515 12 0.0 0.0 0.00 0.00 0.00 92 1018.0
20260504234515 12 0.0 0.0 0.00 0.00 0.00 92 1018.1
20260504233515 12 0.0 1.6 0.00 0.00 0.00 91 1018.0
20260504232515 12 0.0 0.0 0.00 0.00 0.00 90 1018.0
20260504231515 12 0.0 0.0 0.00 0.00 0.00 90 1018.0
20260504230515 12 0.0 0.0 0.00 0.00 0.00 90 1018.0
20260504225515 12 0.0 0.0 0.00 0.00 0.00 90 1018.0
20260504224535 12 0.0 0.0 0.00 0.00 0.00 90 1018.2
20260504223515 12 0.0 0.0 0.00 0.00 0.00 90 1018.2
20260504222515 12 0.0 0.0 0.00 0.00 0.00 90 1018.1
20260504221515 12 0.0 0.0 0.00 0.00 0.00 89 1018.2
20260504220535 12 0.0 0.0 0.00 0.00 0.00 89 1018.3
20260504215515 12 0.0 0.0 0.00 0.00 0.00 88 1018.2
20260504214515 12 0.0 0.0 0.00 0.00 0.00 87 1018.2
20260504213515 12 0.0 0.0 0.00 0.00 0.00 87 1018.2
20260504212515 12 0.0 1.6 0.00 0.00 0.00 86 1018.2
20260504211535 12 0.0 0.0 0.00 0.00 0.00 86 1018.2
20260504210515 12 0.0 0.0 0.00 0.00 0.00 86 1018.3
20260504205535 13 0.0 0.0 0.00 0.00 0.00 85 1018.2
20260504204515 13 0.0 0.0 0.00 0.00 0.00 85 1018.2
20260504203515 13 0.0 0.0 0.00 0.00 0.00 84 1018.2
20260504202515 13 0.0 0.0 0.00 0.00 0.00 84 1018.2
20260504201535 13 0.0 0.0 0.00 0.00 0.00 83 1018.1
20260504200515 13 0.0 0.0 0.00 0.00 0.00 82 1018.0
20260504195515 13 0.0 0.0 0.00 0.00 0.00 81 1018.0
20260504194515 14 0.0 0.0 0.00 0.00 0.00 80 1017.8
20260504193515 14 0.0 0.0 0.00 0.00 0.00 80 1017.8
20260504192515 15 0.0 0.0 0.00 0.00 0.00 80 1017.7
20260504191515 15 0.0 0.0 0.00 0.00 0.00 79 1017.6
20260504190555 15 0.0 1.6 0.00 0.00 0.00 78 1017.6
20260504185515 15 0.0 1.6 0.00 0.00 0.00 77 1017.6
20260504184515 16 0.0 1.6 0.00 0.00 0.00 76 1017.6
20260504183515 16 0.0 1.6 0.00 0.00 0.00 76 1017.5
20260504182535 16 0.0 1.6 0.00 0.00 0.00 75 1017.4